• In Hungary
  • List of Countries
  • For 7 days
  • Water Temperature
  • Satellite Maps
  • Weather Map
  • News
  • Weather Widgets
  • user-avatar
    Login

    Hourly Weather Wielgoszowo

    Today, 19 September, Wednesday

    Time Temperature Precipitation Wind Pressure Humidity
    00:00 +15°C° 0 mm 2 mps 725 mmHg 76%
    01:00 +15°C° 0 mm 2 mps 725 mmHg 75%
    02:00 +14°C° 0 mm 2 mps 725 mmHg 75%
    03:00 +14°C° 0 mm 2 mps 725 mmHg 75%
    04:00 +14°C° 0 mm 2 mps 725 mmHg 75%
    05:00 +15°C° 0 mm 2 mps 725 mmHg 72%
    06:00 +15°C° 0 mm 2 mps 725 mmHg 69%
    07:00 +16°C° 0 mm 2 mps 725 mmHg 66%
    08:00 +18°C° 0 mm 2 mps 726 mmHg 58%
    09:00 +21°C° 0 mm 3 mps 726 mmHg 50%
    10:00 +24°C° 0 mm 3 mps 726 mmHg 42%
    11:00 +25°C° 0 mm 3 mps 726 mmHg 40%
    12:00 +26°C° 0 mm 3 mps 726 mmHg 39%
    13:00 +26°C° 0 mm 3 mps 726 mmHg 37%
    14:00 +26°C° 0 mm 2 mps 726 mmHg 40%
    15:00 +26°C° 0 mm 2 mps 726 mmHg 43%
    16:00 +26°C° 0 mm 2 mps 726 mmHg 46%
    17:00 +23°C° 0 mm 2 mps 725 mmHg 52%
    18:00 +20°C° 0 mm 2 mps 725 mmHg 58%
    19:00 +19°C° 0 mm 1 mps 725 mmHg 65%
    20:00 +18°C° 0 mm 1 mps 726 mmHg 66%
    21:00 +17°C° 0 mm 2 mps 726 mmHg 68%
    22:00 +16°C° 0 mm 2 mps 726 mmHg 70%
    23:00 +16°C° 0 mm 2 mps 726 mmHg 71%

    Tomorrow, 20 September, Thursday

    Time Temperature Precipitation Wind Pressure Humidity
    00:00 +16°C° 0 mm 2 mps 726 mmHg 71%
    01:00 +15°C° 0 mm 2 mps 726 mmHg 72%
    02:00 +15°C° 0 mm 2 mps 726 mmHg 73%
    03:00 +15°C° 0 mm 1 mps 725 mmHg 74%
    04:00 +15°C° 0 mm 1 mps 725 mmHg 74%
    05:00 +15°C° 0 mm 1 mps 726 mmHg 72%
    06:00 +16°C° 0 mm 1 mps 726 mmHg 70%
    07:00 +18°C° 0 mm 1 mps 726 mmHg 68%
    08:00 +20°C° 0 mm 1 mps 726 mmHg 60%
    09:00 +23°C° 0 mm 1 mps 726 mmHg 52%
    10:00 +25°C° 0 mm 1 mps 727 mmHg 44%
    11:00 +26°C° 0 mm 1 mps 727 mmHg 42%
    12:00 +27°C° 0 mm 1 mps 726 mmHg 39%
    13:00 +28°C° 0 mm 1 mps 726 mmHg 37%
    14:00 +27°C° 0 mm 1 mps 726 mmHg 39%
    15:00 +27°C° 0 mm 1 mps 726 mmHg 41%
    16:00 +25°C° 0 mm 0 mps 725 mmHg 43%
    17:00 +24°C° 0 mm 1 mps 725 mmHg 49%
    18:00 +22°C° 0 mm 1 mps 725 mmHg 55%
    19:00 +20°C° 0 mm 1 mps 725 mmHg 61%
    20:00 +19°C° 0 mm 1 mps 725 mmHg 63%
    21:00 +19°C° 0 mm 1 mps 725 mmHg 65%
    22:00 +18°C° 0 mm 1 mps 725 mmHg 67%
    23:00 +18°C° 0 mm 1 mps 725 mmHg 68%

    Day after tomorrow, 21 September, Friday

    Time Temperature Precipitation Wind Pressure Humidity
    00:00 +16°C° 0 mm 1 mps 724 mmHg 70%
    01:00 +16°C° 0 mm 1 mps 724 mmHg 71%
    02:00 +16°C° 0 mm 2 mps 724 mmHg 71%
    03:00 +16°C° 0 mm 2 mps 724 mmHg 72%
    04:00 +15°C° 0 mm 2 mps 724 mmHg 72%
    05:00 +16°C° 0 mm 2 mps 724 mmHg 71%
    06:00 +17°C° 0 mm 2 mps 724 mmHg 69%
    07:00 +17°C° 0 mm 2 mps 724 mmHg 67%
    08:00 +20°C° 0 mm 2 mps 724 mmHg 58%
    09:00 +22°C° 0 mm 3 mps 724 mmHg 50%
    10:00 +26°C° 0 mm 3 mps 724 mmHg 41%
    11:00 +26°C° 0 mm 4 mps 723 mmHg 40%
    12:00 +27°C° 0 mm 4 mps 723 mmHg 38%
    13:00 +28°C° 0 mm 5 mps 723 mmHg 37%
    14:00 +27°C° 0 mm 4 mps 722 mmHg 39%
    15:00 +27°C° 0 mm 4 mps 722 mmHg 42%
    16:00 +26°C° 0 mm 4 mps 722 mmHg 44%
    17:00 +23°C° 0 mm 4 mps 721 mmHg 49%
    18:00 +21°C° 0 mm 3 mps 721 mmHg 54%
    19:00 +19°C° 0 mm 3 mps 721 mmHg 58%
    20:00 +19°C° 0 mm 3 mps 721 mmHg 57%
    21:00 +19°C° 0 mm 3 mps 721 mmHg 56%
    22:00 +19°C° 0 mm 3 mps 721 mmHg 55%
    23:00 +18°C° 0 mm 3 mps 721 mmHg 55%

    22 September, Saturday

    Time Temperature Precipitation Wind Pressure Humidity
    00:00 +18°C° 0 mm 3 mps 721 mmHg 55%
    01:00 +18°C° 0 mm 3 mps 721 mmHg 55%
    02:00 +17°C° 0.1 mm 3 mps 722 mmHg 60%
    03:00 +16°C° 0.1 mm 3 mps 722 mmHg 66%
    04:00 +14°C° 0.1 mm 3 mps 722 mmHg 71%
    05:00 +13°C° 0.7 mm 3 mps 723 mmHg 76%
    06:00 +12°C° 0.7 mm 3 mps 724 mmHg 81%
    07:00 +11°C° 0.7 mm 3 mps 724 mmHg 85%
    08:00 +11°C° 1.1 mm 3 mps 725 mmHg 86%
    09:00 +10°C° 1.1 mm 2 mps 725 mmHg 86%
    10:00 +9°C° 1.1 mm 2 mps 726 mmHg 86%
    11:00 +9°C° 2 mm 2 mps 726 mmHg 87%
    12:00 +9°C° 2 mm 2 mps 726 mmHg 87%
    13:00 +8°C° 2 mm 2 mps 726 mmHg 88%
    14:00 +8°C° 1 mm 2 mps 726 mmHg 87%
    15:00 +9°C° 1 mm 2 mps 726 mmHg 86%
    16:00 +9°C° 1 mm 2 mps 726 mmHg 84%
    17:00 +8°C° 0 mm 2 mps 726 mmHg 86%
    18:00 +7°C° 0 mm 2 mps 726 mmHg 87%
    19:00 +7°C° 0 mm 2 mps 726 mmHg 88%
    20:00 +7°C° 0 mm 2 mps 726 mmHg 89%
    21:00 +7°C° 0 mm 2 mps 726 mmHg 89%
    22:00 +7°C° 0 mm 2 mps 726 mmHg 89%
    23:00 +7°C° 0 mm 2 mps 726 mmHg 90%

    23 September, Sunday

    Time Temperature Precipitation Wind Pressure Humidity
    00:00 +7°C° 0 mm 2 mps 726 mmHg 90%
    01:00 +6°C° 0 mm 2 mps 726 mmHg 91%
    02:00 +6°C° 0 mm 2 mps 726 mmHg 91%
    03:00 +6°C° 0 mm 2 mps 727 mmHg 90%
    04:00 +6°C° 0 mm 2 mps 727 mmHg 90%
    05:00 +7°C° 0 mm 2 mps 727 mmHg 88%
    06:00 +7°C° 0 mm 2 mps 727 mmHg 86%
    07:00 +8°C° 0 mm 2 mps 727 mmHg 84%
    08:00 +10°C° 0 mm 2 mps 727 mmHg 74%
    09:00 +12°C° 0 mm 3 mps 727 mmHg 65%
    10:00 +14°C° 0 mm 3 mps 727 mmHg 55%
    11:00 +16°C° 0 mm 3 mps 726 mmHg 51%
    12:00 +16°C° 0 mm 3 mps 726 mmHg 47%
    13:00 +17°C° 0 mm 3 mps 725 mmHg 42%
    14:00 +17°C° 0 mm 3 mps 724 mmHg 45%
    15:00 +17°C° 0 mm 3 mps 724 mmHg 47%
    16:00 +17°C° 0 mm 3 mps 723 mmHg 49%
    17:00 +14°C° 0 mm 3 mps 722 mmHg 54%
    18:00 +13°C° 0 mm 3 mps 721 mmHg 59%
    19:00 +11°C° 0 mm 3 mps 721 mmHg 64%
    20:00 +11°C° 0 mm 4 mps 719 mmHg 62%
    21:00 +12°C° 0 mm 4 mps 718 mmHg 60%
    22:00 +12°C° 0 mm 5 mps 717 mmHg 57%
    23:00 +12°C° 0 mm 5 mps 716 mmHg 56%

    24 September, Monday

    Time Temperature Precipitation Wind Pressure Humidity
    00:00 +13°C° 0 mm 5 mps 715 mmHg 55%
    01:00 +13°C° 0 mm 5 mps 714 mmHg 54%
    02:00 +13°C° 0.1 mm 4 mps 713 mmHg 58%
    03:00 +13°C° 0.1 mm 4 mps 712 mmHg 63%
    04:00 +13°C° 0.1 mm 4 mps 712 mmHg 67%
    05:00 +12°C° 1.1 mm 5 mps 712 mmHg 72%
    06:00 +12°C° 1.1 mm 5 mps 712 mmHg 78%
    07:00 +11°C° 1.1 mm 6 mps 712 mmHg 83%
    08:00 +11°C° 0.3 mm 7 mps 712 mmHg 79%
    09:00 +11°C° 0.3 mm 8 mps 711 mmHg 76%
    10:00 +11°C° 0.3 mm 8 mps 711 mmHg 72%
    11:00 +11°C° 0.4 mm 9 mps 711 mmHg 73%
    12:00 +11°C° 0.4 mm 10 mps 712 mmHg 73%
    13:00 +11°C° 0.4 mm 10 mps 712 mmHg 74%
    14:00 +9°C° 0.3 mm 10 mps 713 mmHg 73%
    15:00 +9°C° 0.3 mm 10 mps 714 mmHg 72%
    16:00 +8°C° 0.3 mm 10 mps 715 mmHg 72%
    17:00 +8°C° 0.4 mm 10 mps 716 mmHg 73%
    18:00 +7°C° 0.4 mm 10 mps 717 mmHg 74%
    19:00 +7°C° 0.4 mm 10 mps 717 mmHg 75%
    20:00 +7°C° 0.4 mm 10 mps 718 mmHg 76%
    21:00 +6°C° 0.4 mm 10 mps 719 mmHg 77%
    22:00 +6°C° 0.4 mm 9 mps 719 mmHg 78%
    23:00 +6°C° 0.4 mm 9 mps 720 mmHg 79%
    Show more